Starlink 1497

operational
NORAD ID: 45781 Int'l Des: 2020-038 Owner: SPXS Country: US Constellation: starlink
LEOCIRCULAR

关于 Starlink 1497

正在加载描述...

实时位置

正在加载3D地球...

即将过境

高度历史

Altitude vs Time

uPlot chart will show altitude changes over time

两行轨道根数

1 45781U 20038BD 25260.26141489 .00027883 00000-0 64275-3 0 9993
2 45781 53.0424 213.4861 0012362 53.7628 306.4517 15.42323686291205
Epoch: Sep 17, 2025 • Age: 27 hours

当前状态

高度 441.6 km
速度 7.65 km/s
星下点 12.51°N, 120.29°W
发射日期 Jun 13, 2020
运行时间 5.2 years
类型 internet

技术详情

分类 Payload
质量 260.00 kg
干质量 248.00 kg
总质量 260.00 kg
长度 0.20 m
直径 2.80 m
跨度 9.00 m
形状 Box + pan
制造商 SPXS
平台类型 Starlink
阶段状态 In Orbit
所有者/国家 SPXS/US

大型星座

Loading constellations...